Home   Weather   Esslingen   Past weeks

Flag for Germany Past Weather in Esslingen, Baden-Württemberg, Germany — Yesterday and Last 2 Weeks

Now
25 °F

Overcast.


Feels Like: 15 °F
Forecast: 16 / 25 °F
Wind: 10 mph from North

Location: Stuttgart-Echterdingen

Current Time: Jan 17, 2017 at 4:01:51 am

Latest Report: Jan 17, 2017 at 3:20 am


Visibility: N/A

Pressure: 30.36 "Hg

Humidity: 80%

Dew Point: 19 °F

Location of EsslingenLocation

Past Weather in Esslingen — Graph

°F

Esslingen Temperature Yesterday

Maximum temperature yesterday: 28 °F (at 12:20 am)
Minimum temperature yesterday: 25 °F (at 7:50 am)
Average temperature yesterday: 27 °F

High & Low Weather Summary for the Past Weeks

 TemperatureHumidityPressure
High43 °F (Jan 13, 12:20 am)100% (Jan 2, 2:20 am)30.66 "Hg (Jan 2, 2:20 am)
Low7 °F (Jan 7, 2:50 am)59% (Jan 6, 1:20 pm)29.33 "Hg (Jan 13, 12:20 am)
Average30 °F85%30.12 "Hg
* Reported Jan 2 2:20 am — Jan 17 2:50 am, Esslingen, Weather by CustomWeather, © 2017

Note: Actual official high and low records may vary slightly from our data, if they occured in-between our weather recording intervals... More about our weather records

Advertising

Esslingen Weather History for the Previous 24 Hours

Scroll right to see more
 ConditionsComfort  
Time TempWeatherWind HumidityBarometerVisibility
2:50 am
Tue, Jan 17
25 °FLight snow. Overcast.7 mph86%30.33 "HgN/A
2:20 am25 °FLight snow. Overcast.10 mph86%30.33 "HgN/A
1:50 am25 °FLight snow. Overcast.8 mph86%30.33 "HgN/A
1:20 am25 °FLight snow. Overcast.7 mph86%30.33 "HgN/A
12:50 am25 °FLight snow. Passing clouds.8 mph86%30.33 "HgN/A
12:20 am25 °FLight snow. Passing clouds.8 mph86%30.33 "HgN/A
11:50 pm
Mon, Jan 16
25 °FPassing clouds.7 mph86%30.30 "HgN/A
11:20 pm25 °FPassing clouds.9 mph86%30.30 "HgN/A
10:50 pm25 °FPassing clouds.9 mph80%30.30 "HgN/A
10:20 pm25 °FLight snow. Passing clouds.8 mph80%30.30 "HgN/A
9:50 pm25 °FLight snow. Passing clouds.13 mph80%30.30 "HgN/A
9:20 pm25 °FLight snow. Passing clouds.13 mph86%30.27 "HgN/A
8:50 pm25 °FLight snow. Passing clouds.13 mph86%30.27 "HgN/A
8:20 pm27 °FLight snow. Partly cloudy.13 mph74%30.27 "HgN/A
7:50 pm27 °FLight snow. Partly cloudy.7 mph74%30.27 "HgN/A
7:20 pm27 °FLight snow. Partly cloudy.7 mph74%30.27 "HgN/A
6:50 pm27 °FLight snow. Partly cloudy.9 mph74%30.24 "HgN/A
6:20 pm27 °FLight snow. Passing clouds.13 mph74%30.24 "HgN/A
5:50 pm27 °FPassing clouds.12 mph74%30.24 "HgN/A
5:20 pm27 °FPassing clouds.8 mph80%30.21 "HgN/A
4:50 pm27 °FPartly sunny.8 mph86%30.21 "HgN/A
4:20 pm27 °FLight snow. Partly sunny.8 mph86%30.21 "HgN/A
3:50 pm27 °FPartly sunny.8 mph86%30.21 "HgN/A
3:20 pm27 °FScattered clouds.8 mph80%30.21 "HgN/A
2:50 pm27 °FScattered clouds.8 mph80%30.18 "HgN/A
2:20 pm27 °FScattered clouds.9 mph80%30.18 "HgN/A
1:50 pm28 °FPartly sunny.9 mph80%30.18 "HgN/A
1:20 pm28 °FPartly sunny.6 mph80%30.18 "HgN/A
12:50 pm28 °FPartly sunny.6 mph80%30.18 "HgN/A
12:20 pm28 °FPartly sunny.6 mph86%30.18 "HgN/A
11:50 am27 °FBroken clouds.7 mph86%30.18 "HgN/A
11:20 am27 °FBroken clouds.6 mph86%30.18 "HgN/A
10:50 am27 °FBroken clouds.6 mph86%30.18 "HgN/A
10:20 am27 °FLight snow. Partly sunny.7 mph86%30.18 "HgN/A
9:50 am27 °FPartly sunny.6 mph86%30.18 "HgN/A
9:20 am27 °FLight snow. Partly sunny.5 mph86%30.18 "HgN/A
8:50 am27 °FPartly sunny.8 mph86%30.15 "HgN/A
8:20 am27 °FBroken clouds.7 mph86%30.15 "HgN/A
7:50 am25 °FPassing clouds.7 mph93%30.15 "HgN/A
7:20 am27 °FPassing clouds.6 mph93%30.15 "HgN/A
6:50 am27 °FPassing clouds.6 mph93%30.15 "HgN/A
6:20 am27 °FPassing clouds.6 mph93%30.12 "HgN/A
5:50 am28 °FPartly cloudy.7 mph86%30.12 "HgN/A
5:20 am28 °FPassing clouds.7 mph93%30.12 "HgN/A
4:50 am28 °FSnow flurries. Passing clouds.9 mph93%30.12 "Hg4 mi
4:20 am28 °FSnow flurries. Partly cloudy.6 mph93%30.12 "Hg5 mi
Weather by CustomWeather, © 2017

See weather overviewHow to use our weather pages